TimePDT,TemperatureF,Dew PointF,Humidity,Sea Level PressureIn,VisibilityMPH,Wind Direction,Wind SpeedMPH,Gust SpeedMPH,PrecipitationIn,Events,Conditions,WindDirDegrees,DateUTC
12:53 AM,44.1,43.0,96,30.37,10.0,Calm,Calm,-,N/A,,Clear,0,2012-10-01 07:53:00
1:53 AM,44.1,42.1,93,30.37,10.0,Calm,Calm,-,N/A,,Clear,0,2012-10-01 08:53:00
2:53 AM,45.0,43.0,93,30.36,10.0,Calm,Calm,-,N/A,,Clear,0,2012-10-01 09:53:00
3:53 AM,44.1,43.0,96,30.35,10.0,Calm,Calm,-,N/A,,Clear,0,2012-10-01 10:53:00
5:53 AM,44.1,42.1,93,30.33,8.0,Calm,Calm,-,N/A,,Clear,0,2012-10-01 12:53:00
6:53 AM,44.1,43.0,96,30.32,7.0,Calm,Calm,-,N/A,,Clear,0,2012-10-01 13:53:00
7:30 AM,44.6,42.8,93,30.31,1.5,Calm,Calm,-,N/A,,Clear,0,2012-10-01 14:30:00
7:42 AM,44.6,44.6,100,30.31,3.0,Calm,Calm,-,N/A,,Clear,0,2012-10-01 14:42:00
7:53 AM,46.9,46.0,97,30.31,9.0,Calm,Calm,-,N/A,,Clear,0,2012-10-01 14:53:00
8:53 AM,53.1,48.9,86,30.30,10.0,South,3.5,-,N/A,,Clear,170,2012-10-01 15:53:00
9:53 AM,54.0,48.9,83,30.29,10.0,ESE,4.6,-,N/A,,Mostly Cloudy,120,2012-10-01 16:53:00
11:53 AM,59.0,48.0,67,30.25,10.0,ESE,9.2,-,N/A,,Clear,120,2012-10-01 18:53:00
12:53 PM,62.1,48.0,60,30.22,10.0,SE,9.2,-,N/A,,Clear,130,2012-10-01 19:53:00
3:53 PM,66.9,57.0,70,30.14,10.0,SW,11.5,-,N/A,,Partly Cloudy,220,2012-10-01 22:53:00
4:53 PM,64.0,55.0,73,30.13,10.0,SSW,9.2,-,N/A,,Clear,210,2012-10-01 23:53:00
5:53 PM,64.0,54.0,70,30.10,10.0,Variable,4.6,-,N/A,,Partly Cloudy,0,2012-10-02 00:53:00
6:53 PM,61.0,52.0,72,30.10,10.0,SW,8.1,-,N/A,,Clear,230,2012-10-02 01:53:00
7:53 PM,57.9,50.0,75,30.12,10.0,WSW,8.1,-,N/A,,Clear,240,2012-10-02 02:53:00
8:53 PM,55.9,48.0,75,30.14,10.0,Calm,Calm,-,N/A,,Clear,0,2012-10-02 03:53:00
9:53 PM,53.1,48.0,83,30.15,10.0,WSW,5.8,-,N/A,,Clear,240,2012-10-02 04:53:00
10:53 PM,51.1,48.0,89,30.16,10.0,WSW,5.8,-,N/A,,Clear,250,2012-10-02 05:53:00